Home   Weather   Punta Gorda   Past weeks
Flag for Belize

Past Weather in Punta Gorda, Belize — Yesterday and Last 2 Weeks

Now
75 °F

Passing clouds.


Feels Like: 73 °F
Forecast: 90 / 76 °F
Wind: No wind

Location: Puerto Barrios Airport

Current Time: May 22, 2019 at 5:12:24 am

Latest Report: May 22, 2019 at 4:00 am


Visibility: N/A

Pressure: 29.77 "Hg

Humidity: 100%

Dew Point: 75 °F

Location of Punta GordaLocation

Past Weather in Punta Gorda — Graph

°F

Punta Gorda Temperature Yesterday

Maximum temperature yesterday: 90 °F (at 12:00 pm)
Minimum temperature yesterday: 77 °F (at 3:00 am)
Average temperature yesterday: 82 °F

High & Low Weather Summary for the Past Weeks

 TemperatureHumidityPressure
High91 °F (May 9, 1:00 pm)100% (May 7, 4:00 am)30.27 "Hg (May 7, 4:00 am)
Low64 °F (May 7, 5:00 am)34% (May 21, 9:00 am)29.68 "Hg (May 9, 3:00 pm)
Average84 °F84%29.81 "Hg
* Reported May 7 4:00 am — May 22 4:00 am, Punta Gorda. Weather by CustomWeather, © 2019

Note: Actual official high and low records may vary slightly from our data, if they occured in-between our weather recording intervals... More about our weather records

Advertising

Punta Gorda Weather History for the Previous 24 Hours

Scroll right to see more
 ConditionsComfort  
Time TempWeatherWind HumidityBarometerVisibility
4:00 am
Wed, May 22
75 °FPassing clouds.No wind100%29.77 "HgN/A
3:00 am77 °FPassing clouds.No wind94%29.77 "HgN/A
2:00 am75 °FClear.No wind94%29.77 "Hg10 mi
1:00 am77 °FClear.No wind94%29.80 "Hg10 mi
12:00 am77 °FClear.No wind94%29.80 "Hg10 mi
11:00 pm
Tue, May 21
79 °FClear.No wind94%29.83 "Hg10 mi
10:00 pm79 °FClear.No wind89%29.80 "Hg10 mi
9:00 pm81 °FClear.No wind84%29.80 "Hg10 mi
8:00 pm81 °FClear.5 mph89%29.77 "Hg10 mi
7:00 pm82 °FClear.5 mph84%29.77 "Hg6 mi
6:00 pm84 °FScattered clouds.5 mph74%29.74 "Hg5 mi
5:00 pm86 °FScattered clouds.7 mph75%29.71 "Hg5 mi
4:00 pm88 °FScattered clouds.7 mph70%29.71 "Hg5 mi
3:00 pm90 °FScattered clouds.12 mph67%29.74 "Hg5 mi
2:00 pm90 °FScattered clouds.9 mph67%29.74 "Hg5 mi
1:00 pm90 °FScattered clouds.12 mph71%29.77 "Hg5 mi
12:00 pm90 °FBroken clouds.9 mph71%29.77 "Hg5 mi
11:00 am88 °FBroken clouds.7 mph75%29.80 "Hg5 mi
10:00 am88 °FScattered clouds.5 mph70%29.80 "Hg5 mi
9:00 am77 °FScattered clouds.5 mph34%29.83 "Hg5 mi
8:00 am84 °FScattered clouds.No wind74%29.80 "Hg5 mi
7:00 am77 °FPartly sunny.5 mph100%29.80 "Hg5 mi
6:00 am77 °FPartly sunny.No wind94%29.77 "HgN/A
5:00 am77 °FPassing clouds.No wind94%29.77 "HgN/A
Weather by CustomWeather, © 2019

See weather overview